{"data":{"norad_id":57626,"intl_designator":"2023-121A","name":"HEAD-3A","alt_names":[],"object_type":"PAYLOAD","status":"ACTIVE","operator":null,"country":"PRC","launch_date":"2023-08-14","launch_site_code":"XICLF","launch_vehicle":null,"mission":null,"orbit_class":"UNKNOWN","rcs_meters":null,"size_class":null,"mass_kg":null,"dimensions":null,"purposes":[],"wikipedia_slug":null,"has_3d_model":false,"image_url":null,"decayed_at":null,"tle_current":{"epoch":"2026-09-21T21:59:44.029248Z","epoch_age_seconds":88432,"freshness":"FRESH","line1":"1 57626U 23121A   26264.91648182  .00000344  00000+0  10230-3 0  9993","line2":"2 57626  45.0010 196.0084 0006512  52.4746 307.6703 14.60795731165728","mean_motion":14.60795731,"eccentricity":0.0006512,"inclination_deg":45.001,"raan_deg":196.0084,"arg_perigee_deg":52.4746,"mean_anomaly_deg":307.6703,"bstar":0.0001023,"rev_number":16572,"period_min":98.576410749382,"perigee_km":686.00264660879,"apogee_km":695.20897724704,"semimajor_km":7068.7428119279,"source":"CELESTRAK","updated_at":"2026-09-22T09:00:26.241545Z"}}}